{"data":{"norad_id":43229,"epoch":"2026-09-19T01:01:48.498816Z","epoch_age_seconds":177440,"freshness":"STALE","line1":"1 43229U 18023B   26262.04292244  .00064519 -40361-6  52697-3 0  9997","line2":"2 43229  26.8170 256.1950 3418599 134.2883 259.4544  8.69493675200891","mean_motion":8.69493675,"eccentricity":0.3418599,"inclination_deg":26.817,"raan_deg":256.195,"arg_perigee_deg":134.2883,"mean_anomaly_deg":259.4544,"bstar":0.00052697,"rev_number":20089,"period_min":165.61362565403,"perigee_km":196.5625219941,"apogee_km":7026.7985799974,"semimajor_km":9989.8175509958,"source":"CELESTRAK","updated_at":"2026-09-20T09:00:14.310564Z"}}